Location: D�derode
(51.8092°N, 10.1065°E)
Time: 06:09:28
(UTC+00:00)

NOSS 3-3 (A) - Pass Details

Date: 01 December 2020
Orbit: 818 x 1394 km, 63.4° (Epoch: 22 January)

Event Time Altitude Azimuth Distance (km) Brightness Sun altitude
Rises 17:30:55 0° 314° (NW) 3,894 7.7 -20.4°
Reaches altitude 10° 17:33:26 10° 314° (NW) 3,013 7.0 -20.8°
Maximum altitude 17:40:47 88° 225° (SW) 1,250 4.5 -21.9°
Enters shadow 17:48:04 14° 139° (SE) 3,039 6.2 -23.0°
